Regional Weather Roundup
Issued by NWS State College, PA

Home | Current Version | Previous Version | Graphics & Text | Print | Product List | Glossary On
Versions: 1 2 3 4 5 6 7 8 9 10 11 12 13 14 15 16 17 18 19 20 21 22 23 24 25 26 27 28 29 30 31 32 33 34 35 36 37 38 39 40 41 42 43 44 45 46 47 48 49 50
000
ASUS41 KCTP 291810
RWRCTP

REGIONAL WEATHER ROUNDUP
NATIONAL WEATHER SERVICE STATE COLLEGE PA
200 PM EDT SAT AUG 29 2015

Note: "fair" indicates few or no clouds below 12,000 feet with no
significant weather and/or obstructions to visibility.

* = STATION THAT DOES NOT REPORT PRECIPITATION /E.G. RAIN...SNOW...ETC/
    THUNDER OR FOG.

PAZ002>004-007>009-013>016-020>023-029>032-291900-
WESTERN PENNSYLVANIA

CITY           SKY/WX    TMP DP  RH WIND       PRES   REMARKS
ERIE           MOSUNNY   76  61  59 N6        30.14F
MEADVILLE      MOSUNNY   78  55  44 VRB5      30.16F
FRANKLIN*      MOSUNNY   77  57  50 S7        30.19F
NEW CASTLE     FAIR      83  62  48 SW5       30.16F
BEAVER COUNTY  MOSUNNY   82  61  47 SW3       30.17F
BUTLER*        MOSUNNY   81  61  50 W8        30.19F
PITTSBURGH INT MOSUNNY   83  59  44 W7        30.16F
PITTSBURGH     SUNNY     82  53  36 W7        30.16F
INDIANA*       MOSUNNY   79  57  47 NW10      30.21F
LATROBE        PTSUNNY   82  57  42 NW8G25    30.19F
WASHINGTON CO* MOSUNNY   82  61  47 W5        30.18F
$$

PAZ004>006-010>012-017>019-024>028-033>037-041-042-045-046-049>053-291900-
CENTRAL PENNSYLVANIA

CITY           SKY/WX    TMP DP  RH WIND       PRES   REMARKS
BRADFORD       MOSUNNY   75  52  44 VRB3      30.20F
DUBOIS         SUNNY     80  51  36 MISG      30.18F
CLEARFIELD     SUNNY     80  53  39 VRB6      30.19F
JOHNSTOWN      MOSUNNY   77  53  43 W10       30.22F
ALTOONA        SUNNY     83  52  34 NW9       30.19F
STATE COLLEGE  MOSUNNY   79  59  50 W7        30.18F
WILLIAMSPORT   SUNNY     79  62  56 VRB5      30.14F
SELINSGROVE    SUNNY     81  63  54 VRB6      30.15F
FT INDIANTOWN  SUNNY     82  63  52 SW6       30.15F
CAPITAL CITY   MOSUNNY   82  62  50 W6        30.15F
HARRISBURG     MOSUNNY   82  62  50 W3        30.14F
YORK           MOSUNNY   82  64  54 VRB6      30.16F
$$

PAZ038>040-043-044-047-048-054-055-060>062-067>071-291900-
EASTERN PENNSYLVANIA

CITY           SKY/WX    TMP DP  RH WIND       PRES   REMARKS
SCRANTON       PTSUNNY   81  60  48 SW6       30.16F
MOUNT POCONO   MOSUNNY   75  58  55 VRB7      30.22F
ALLENTOWN      PTSUNNY   83  61  47 S5        30.16F
QUAKERTOWN*    PTCLDY    82  63  51 S7        30.18F
READING        MOSUNNY   84  62  47 SW8       30.14F
LANCASTER      MOSUNNY   81  62  52 W5        30.16F
COATESVILLE    PTCLDY    81  63  54 S5        30.19F
POTTSTOWN      PTSUNNY   81  62  52 SW10      30.18F
BLUE BELL      MOSUNNY   84  63  48 SW6       30.16F
DOYLESTOWN     MOSUNNY   80  59  48 S8        30.16F
WILLOW GROVE   NOT AVBL
NORTH PHILA    SUNNY     86  57  37 MISG      30.18F
PHILADELPHIA   MOSUNNY   85  57  38 SW8       30.17F
$$


USA.gov is the U.S. government's official web portal to all federal, state and local government web resources and services.